TBA9904 ZPLJ-ZULS

Flight info

Callsign TBA9904
Flight time N/A
Altitude 32100
Route CEH DCT PARGU B213 IGDAG
Aircraft A319/M-SDE2E3FGILORWXY/LB1D1

Departure

Time 2026-04-23 11:14
Airport Lijiang Sanyi International Airport (ZPLJ)

Arrival

Time N/A
Airport Lhasa Gonggar International Airport (ZULS)
Time Latitude Longitude Altitude Speed Heading
2026-04-23 10:55 26.66958 100.24579 7264 ft 0 kts 198°
2026-04-23 11:03 26.66961 100.24580 7261 ft 2 kts 198°
2026-04-23 11:04 26.66977 100.24585 7265 ft 2 kts 198°
2026-04-23 11:04 26.66992 100.24591 7266 ft 2 kts 200°
2026-04-23 11:04 26.67007 100.24598 7266 ft 2 kts 227°
2026-04-23 11:04 26.67015 100.24614 7267 ft 2 kts 283°
2026-04-23 11:05 26.67014 100.24617 7267 ft 0 kts 289°
2026-04-23 11:06 26.67018 100.24603 7264 ft 4 kts 287°
2026-04-23 11:06 26.67031 100.24558 7267 ft 8 kts 288°
2026-04-23 11:07 26.67047 100.24501 7267 ft 7 kts 288°
2026-04-23 11:07 26.67078 100.24457 7267 ft 7 kts 336°
2026-04-23 11:07 26.67132 100.24465 7268 ft 9 kts 15°
2026-04-23 11:07 26.67200 100.24488 7270 ft 11 kts 17°
2026-04-23 11:08 26.67282 100.24516 7272 ft 13 kts 16°
2026-04-23 11:08 26.67378 100.24548 7274 ft 15 kts 17°
2026-04-23 11:08 26.67485 100.24585 7277 ft 17 kts 17°
2026-04-23 11:08 26.67604 100.24626 7280 ft 19 kts 17°
2026-04-23 11:09 26.67734 100.24670 7282 ft 20 kts 17°
2026-04-23 11:09 26.67859 100.24713 7285 ft 18 kts 17°
2026-04-23 11:09 26.67974 100.24752 7288 ft 16 kts 17°
2026-04-23 11:09 26.68078 100.24788 7291 ft 15 kts 17°
2026-04-23 11:10 26.68186 100.24825 7295 ft 17 kts 17°
2026-04-23 11:10 26.68306 100.24865 7298 ft 19 kts 17°
2026-04-23 11:10 26.68436 100.24910 7302 ft 20 kts 17°
2026-04-23 11:10 26.68565 100.24954 7304 ft 19 kts 17°
2026-04-23 11:11 26.68683 100.24994 7307 ft 17 kts 17°
2026-04-23 11:11 26.68790 100.25030 7309 ft 15 kts 17°
2026-04-23 11:11 26.68886 100.25063 7312 ft 10 kts 17°
2026-04-23 11:11 26.68947 100.25051 7313 ft 9 kts 316°
2026-04-23 11:12 26.68969 100.24987 7314 ft 9 kts 289°
2026-04-23 11:12 26.68975 100.24921 7314 ft 9 kts 246°
2026-04-23 11:12 26.68924 100.24888 7313 ft 4 kts 197°
2026-04-23 11:13 26.68875 100.24871 7311 ft 32 kts 197°
2026-04-23 11:13 26.68434 100.24721 7301 ft 98 kts 197°
2026-04-23 11:13 26.67602 100.24439 7276 ft 151 kts 197°
2026-04-23 11:13 26.66480 100.24063 7552 ft 174 kts 198°
2026-04-23 11:14 26.65317 100.23672 8150 ft 175 kts 200°
2026-04-23 11:14 26.64154 100.23273 8632 ft 175 kts 200°
2026-04-23 11:14 26.62985 100.22872 9128 ft 180 kts 199°
2026-04-23 11:14 26.61720 100.22434 9251 ft 201 kts 200°
2026-04-23 11:15 26.60310 100.21941 9391 ft 224 kts 199°
2026-04-23 11:15 26.58743 100.21400 9534 ft 248 kts 199°
2026-04-23 11:15 26.57030 100.20811 9887 ft 264 kts 199°
2026-04-23 11:15 26.55224 100.20316 10507 ft 271 kts 192°
2026-04-23 11:16 26.53320 100.20114 11131 ft 279 kts 184°
2026-04-23 11:16 26.51390 100.20221 11805 ft 284 kts 176°
2026-04-23 11:16 26.49409 100.20357 12497 ft 286 kts 183°
2026-04-23 11:16 26.47419 100.20249 13198 ft 287 kts 189°
2026-04-23 11:17 26.45435 100.19959 13838 ft 289 kts 191°
2026-04-23 11:17 26.43435 100.19659 14531 ft 291 kts 191°
2026-04-23 11:17 26.41410 100.19355 15157 ft 296 kts 191°
2026-04-23 11:17 26.39345 100.19048 15503 ft 301 kts 190°
2026-04-23 11:18 26.37265 100.18738 15580 ft 302 kts 191°
2026-04-23 11:18 26.35180 100.18431 15595 ft 302 kts 190°
2026-04-23 11:18 26.33121 100.18008 15596 ft 300 kts 198°
2026-04-23 11:18 26.31164 100.17244 15597 ft 297 kts 207°
2026-04-23 11:19 26.29358 100.16129 15791 ft 298 kts 218°
2026-04-23 11:19 26.27740 100.14700 16472 ft 297 kts 226°
2026-04-23 11:19 26.26329 100.13013 17147 ft 298 kts 235°
2026-04-23 11:19 26.25172 100.11088 17807 ft 300 kts 244°
2026-04-23 11:20 26.24310 100.08969 18407 ft 301 kts 255°
2026-04-23 11:20 26.23825 100.06700 18973 ft 302 kts 265°
2026-04-23 11:20 26.23732 100.04362 19545 ft 303 kts 276°
2026-04-23 11:20 26.24033 100.02039 20114 ft 304 kts 287°
2026-04-23 11:21 26.24727 99.99820 20691 ft 304 kts 297°
2026-04-23 11:21 26.25396 99.98453 21078 ft 304 kts 304°
2026-04-23 11:21 26.26695 99.96595 21702 ft 305 kts 315°
2026-04-23 11:21 26.28289 99.95044 22325 ft 306 kts 326°
2026-04-23 11:22 26.30136 99.93862 22991 ft 307 kts 336°
2026-04-23 11:22 26.32161 99.93105 23551 ft 309 kts 347°
2026-04-23 11:22 26.34305 99.92817 24036 ft 313 kts 357°
2026-04-23 11:22 26.36495 99.93016 24489 ft 320 kts
2026-04-23 11:23 26.38665 99.93671 24877 ft 328 kts 13°
2026-04-23 11:23 26.40902 99.94428 24996 ft 343 kts 13°
2026-04-23 11:23 26.43238 99.95210 25115 ft 358 kts 13°
2026-04-23 11:23 26.45670 99.96021 25234 ft 372 kts 13°
2026-04-23 11:24 26.48191 99.96863 25356 ft 385 kts 13°
2026-04-23 11:24 26.50801 99.97738 25475 ft 398 kts 13°
2026-04-23 11:24 26.53489 99.98646 25581 ft 409 kts 14°
2026-04-23 11:24 26.56248 99.99582 25701 ft 420 kts 14°
2026-04-23 11:25 26.59075 100.00539 25861 ft 429 kts 14°
2026-04-23 11:25 26.61942 100.01509 26156 ft 433 kts 14°
2026-04-23 11:25 26.64838 100.02487 26502 ft 436 kts 14°
2026-04-23 11:25 26.67756 100.03475 26824 ft 440 kts 14°
2026-04-23 11:26 26.70693 100.04470 27148 ft 442 kts 13°
2026-04-23 11:26 26.73641 100.05468 27501 ft 444 kts 13°
2026-04-23 11:26 26.76606 100.06471 27848 ft 446 kts 13°
2026-04-23 11:26 26.79583 100.07479 28186 ft 449 kts 13°
2026-04-23 11:27 26.82612 100.08322 28520 ft 448 kts
2026-04-23 11:27 26.85701 100.08785 28885 ft 449 kts
2026-04-23 11:27 26.88804 100.09232 29228 ft 450 kts
2026-04-23 11:27 26.91918 100.09684 29587 ft 451 kts
2026-04-23 11:28 26.94988 100.10132 30001 ft 450 kts
2026-04-23 11:28 26.98133 100.10589 30388 ft 449 kts
2026-04-23 11:28 27.01190 100.11035 30769 ft 449 kts
2026-04-23 11:28 27.04289 100.11489 31135 ft 449 kts
2026-04-23 11:29 27.07388 100.11941 31494 ft 449 kts
2026-04-23 11:29 27.10488 100.12392 31822 ft 450 kts
2026-04-23 11:29 27.13586 100.12844 31928 ft 447 kts
2026-04-23 11:30 27.19768 100.13760 31904 ft 444 kts
2026-04-23 11:30 27.25837 100.13875 31912 ft 436 kts 347°
2026-04-23 11:31 27.31497 100.11636 31941 ft 431 kts 328°
2026-04-23 11:31 27.36263 100.07516 31945 ft 430 kts 319°
2026-04-23 11:32 27.40814 100.03217 31944 ft 430 kts 319°
2026-04-23 11:32 27.45401 99.98893 31960 ft 429 kts 320°
2026-04-23 11:33 27.50000 99.94609 31993 ft 429 kts 320°
2026-04-23 11:33 27.54608 99.90349 31991 ft 429 kts 320°
2026-04-23 11:34 27.59211 99.86080 31986 ft 428 kts 320°
2026-04-23 11:34 27.63800 99.81799 31993 ft 428 kts 320°
2026-04-23 11:35 27.68385 99.77514 31989 ft 429 kts 320°
2026-04-23 11:35 27.72976 99.73221 31992 ft 429 kts 320°
2026-04-23 11:36 27.77670 99.69079 31996 ft 428 kts 328°
2026-04-23 11:36 27.83172 99.66564 31988 ft 430 kts 346°
2026-04-23 11:37 27.88968 99.65085 31990 ft 430 kts 346°
2026-04-23 11:37 27.94800 99.63576 31991 ft 430 kts 345°
2026-04-23 11:38 28.00633 99.62065 31991 ft 430 kts 345°
2026-04-23 11:38 28.06465 99.60552 31991 ft 430 kts 345°
2026-04-23 11:39 28.12296 99.59040 31990 ft 430 kts 346°
2026-04-23 11:39 28.18131 99.57528 31990 ft 430 kts 346°
2026-04-23 11:40 28.23970 99.56035 31998 ft 430 kts 346°
2026-04-23 11:40 28.29811 99.54549 31996 ft 430 kts 346°
2026-04-23 11:41 28.35649 99.53059 31995 ft 430 kts 345°
2026-04-23 11:41 28.41472 99.51567 32000 ft 428 kts 345°
2026-04-23 11:42 28.47271 99.50075 31997 ft 427 kts 345°
2026-04-23 11:42 28.53066 99.48584 31992 ft 426 kts 345°
2026-04-23 11:43 28.58806 99.47108 31975 ft 425 kts 345°
2026-04-23 11:43 28.64573 99.45622 31992 ft 423 kts 345°
2026-04-23 11:44 28.70216 99.44161 31946 ft 412 kts 345°
2026-04-23 11:44 28.72591 99.43547 31958 ft 411 kts 345°